RH
70 62 46 37 34 32 21 17 16 15 12 12 11 18 21 20 16 17 28 29 29 26 22 19 17 18 20 25 26 39 52 49 40 40 40 33 36 34 38 47 51 52 55 62 63
67 60 56 38 36 32 21 16 16 14 11 10 11 16 13 21 22 23 22 25 24 26 23 24 23 20 27 25 30 47 54 39 36 36 38 38 36 34 44 50 55 58 62 64 64
63 59 54 37 29 30 18 15 14 12 10 10 10 12 12 22 17 22 21 21 24 21 20 23 24 20 26 26 30 34 43 41 41 35 36 38 38 36 49 55 54 57 70 70 69
60 60 51 30 30 21 17 14 12 11 11 10 12 13 19 21 14 20 21 21 24 18 16 19 24 24 28 29 30 36 37 38 41 39 36 38 40 43 44 52 54 65 69 72 73
56 55 48 27 24 21 18 16 14 12 14 16 16 16 23 19 22 21 21 23 19 15 26 25 28 25 28 26 28 36 36 43 42 40 42 40 44 46 50 55 64 66 71 75 75
53 49 49 26 25 22 23 22 24 23 21 19 17 19 14 18 21 21 21 24 23 24 24 26 29 27 26 28 31 29 34 44 46 43 40 44 45 39 49 54 64 68 76 74 74
50 46 50 28 22 24 22 24 22 21 16 14 17 13 18 17 19 20 20 25 26 24 28 26 25 23 27 30 27 32 37 40 45 46 45 41 44 54 51 52 60 68 75 75 74
52 44 49 32 21 20 22 20 19 16 14 14 17 14 18 18 19 20 19 24 24 26 23 16 19 21 23 24 29 32 32 36 31 49 44 39 50 38 55 52 59 70 76 78 72
48 42 44 35 19 19 19 18 16 13 13 15 17 17 18 17 18 19 20 21 21 24 24 24 19 28 29 34 35 34 33 29 31 50 49 50 48 40 54 50 56 72 78 77 76
45 42 44 36 18 18 17 19 18 17 20 19 18 22 18 22 20 19 16 19 23 25 24 25 37 32 36 36 40 32 32 31 33 36 48 54 62 54 55 56 55 73 75 75 74
47 45 41 37 18 15 15 26 25 22 22 24 22 20 21 18 21 18 17 20 23 23 28 29 37 31 27 27 24 26 30 33 32 29 32 37 43 37 41 61 56 74 74 70 72
46 45 40 39 29 20 22 46 58 38 25 21 22 21 20 22 24 23 17 24 25 28 30 37 30 24 24 26 27 26 31 34 33 28 35 39 41 56 56 54 56 72 75 65 66
46 42 41 40 39 34 32 51 48 49 29 23 21 21 20 22 22 26 22 25 24 27 32 34 23 22 25 26 27 28 30 32 36 40 39 44 42 42 48 49 53 61 69 61 66
44 42 41 45 43 50 51 48 44 44 52 36 29 25 22 21 25 20 20 25 24 26 27 26 23 27 29 25 25 32 27 31 38 48 56 42 55 41 48 51 52 60 68 66 61
43 44 43 42 45 48 49 44 44 48 55 30 30 22 24 24 24 33 20 21 24 28 33 35 26 26 29 24 24 31 30 38 36 49 56 51 55 46 53 48 49 55 57 62 64
44 44 43 43 48 50 48 47 50 65 50 38 33 36 29 33 31 34 27 24 22 29 32 28 26 28 25 24 26 29 38 52 63 70 76 55 54 53 47 40 34 41 52 54 64
43 47 46 47 51 49 47 59 70 53 36 40 40 37 36 36 35 36 29 34 42 45 57 50 35 25 23 30 31 40 56 71 62 80 68 52 53 50 37 37 36 39 47 53 58
42 51 49 54 48 47 56 51 38 41 46 37 38 38 36 36 36 38 33 38 30 41 62 57 60 30 24 26 31 37 48 64 61 70 61 50 61 46 44 38 36 36 42 48 51
45 53 59 57 47 49 55 58 53 49 39 42 40 41 44 37 37 45 30 36 30 32 53 54 53 29 24 25 31 38 49 38 50 56 76 66 52 40 45 45 41 38 39 47 49
55 63 60 52 48 59 54 52 46 33 36 37 44 39 44 41 42 49 43 29 32 29 33 40 65 42 29 28 30 32 33 50 66 67 74 67 63 60 44 39 42 46 46 46 46
60 67 59 47 59 60 52 55 36 32 34 39 42 44 41 41 43 49 45 31 31 32 29 36 54 54 45 42 44 44 48 40 49 63 70 84 68 48 42 39 37 42 49 50 48
74 62 58 49 60 75 56 40 34 34 32 35 35 40 40 38 46 49 51 39 29 33 42 38 62 82 70 40 30 36 43 42 57 68 60 68 69 39 41 41 38 49 50 48 49
87 86 58 49 66 68 50 41 38 39 40 41 44 37 34 41 50 51 49 34 33 34 43 47 72 90 73 51 48 44 38 35 39 48 65 78 68 42 50 49 49 52 52 53 51
87 75 73 69 70 61 58 55 53 39 39 38 43 35 38 43 43 48 51 42 35 37 45 52 75 78 84 68 67 77 67 48 53 86 74 67 59 47 42 45 53 63 60 55 52
91 75 73 65 64 57 54 56 55 52 42 39 44 46 47 53 51 57 51 51 45 39 50 49 75 76 73 69 70 71 70 69 78 69 83 67 72 57 55 56 66 63 56 54 51
87 83 80 79 65 58 63 62 62 53 53 57 54 51 50 53 53 56 57 58 61 53 48 54 78 73 82 71 72 79 68 67 70 70 69 67 71 60 68 69 76 79 53 52 52
84 68 79 74 70 71 73 60 59 55 52 52 54 55 61 52 48 48 52 58 56 64 58 67 72 81 84 73 78 84 71 68 73 72 71 86 71 78 86 83 80 58 53 55 58
Wind_Speed
21 21 15 15 15 12 7 7 5 3 3 5 7 9 9 5 17 21 15 14 14 17 12 12 10 13 2 4 5 3 4 2 1 2 2 1 2 2 3 5 3 3 3 4 9
21 21 18 14 16 10 7 7 6 4 5 7 8 7 4 5 4 18 20 16 13 16 12 13 7 11 4 5 4 5 4 2 1 3 3 2 3 2 3 2 3 4 6 8 13
20 21 20 19 14 7 8 8 7 6 6 8 7 4 3 4 4 5 20 17 12 13 9 7 4 0 5 5 5 2 3 4 1 2 5 4 2 2 7 3 3 4 3 6 12
20 21 20 18 13 11 10 10 9 10 9 8 6 3 5 2 2 10 17 17 10 12 8 10 6 4 4 5 4 5 3 3 3 1 1 3 3 1 3 2 7 8 7 5 7
21 21 19 14 12 11 10 10 11 11 10 9 6 4 3 6 1 12 15 15 8 11 16 4 7 3 3 3 3 4 2 2 1 1 1 2 3 4 4 6 10 10 8 6 6
22 21 18 12 10 9 9 9 10 10 9 7 8 5 4 5 6 10 14 10 14 10 11 9 3 2 4 3 4 0 1 3 4 3 2 1 2 0 2 7 9 7 6 5 6
22 21 18 12 7 7 7 7 7 7 8 6 7 9 10 1 4 11 12 6 9 9 3 5 4 3 2 2 2 2 1 2 4 3 2 2 4 6 5 8 9 7 6 5 5
23 21 17 13 6 6 6 8 8 6 4 5 5 4 3 3 6 12 13 1 5 5 5 4 5 4 3 0 4 4 4 4 2 5 2 2 7 4 6 9 8 7 6 6 3
23 20 15 13 6 6 6 6 5 5 5 4 3 3 1 4 5 13 11 6 8 4 3 5 3 4 6 3 4 6 2 3 8 7 3 3 7 3 7 6 7 6 6 6 5
22 19 14 12 4 4 6 6 8 3 3 2 4 3 5 5 8 12 14 7 2 7 4 6 5 4 5 5 1 3 4 4 4 1 2 5 14 7 9 8 8 7 6 6 5
22 18 13 10 6 2 1 2 4 5 11 3 2 2 3 11 3 11 13 3 3 6 3 4 7 2 3 1 2 4 3 4 4 3 6 3 8 12 7 7 7 7 7 5 4
22 18 14 5 12 1 1 6 2 2 4 3 2 2 1 4 4 9 12 5 5 3 4 6 2 3 4 2 2 3 2 4 6 3 1 6 10 3 3 2 6 8 7 6 4
21 17 15 2 5 10 12 6 4 2 4 3 2 2 3 4 1 6 6 2 5 5 4 4 2 2 1 3 6 4 2 3 5 6 2 7 5 2 2 2 1 3 5 5 7
21 15 13 1 1 4 4 3 1 2 4 6 4 4 3 1 2 2 3 2 5 1 1 1 2 3 2 1 2 4 3 4 6 3 3 4 4 4 2 4 5 7 7 7 7
21 12 11 11 2 3 2 2 2 1 3 2 5 3 6 4 2 7 3 3 1 3 2 3 3 3 2 2 2 7 4 5 2 2 3 3 2 5 2 4 6 9 9 9 9
21 12 9 5 5 4 2 4 2 5 3 4 3 6 3 4 6 6 5 6 0 1 2 1 1 1 2 3 2 6 4 4 3 3 2 2 3 5 3 4 1 1 6 9 8
21 10 6 6 4 3 3 2 5 4 2 4 3 3 2 3 5 4 4 7 4 5 7 6 1 1 1 4 4 8 5 4 5 4 4 3 1 8 3 1 1 4 7 8 7
20 7 3 4 6 1 2 4 2 1 2 1 2 4 1 3 2 6 2 4 4 4 3 4 7 2 3 1 2 3 3 3 4 3 5 3 5 4 4 5 4 4 6 5 7
18 6 3 4 3 2 4 4 6 5 2 1 1 1 3 2 1 5 2 3 1 1 3 4 5 1 1 1 2 2 2 3 1 1 1 3 7 4 4 6 5 6 3 8 9
14 7 2 6 2 1 4 4 3 1 1 1 2 1 2 3 3 4 1 3 3 2 3 2 5 2 1 1 2 1 2 1 2 3 5 5 6 5 4 3 4 5 8 9 7
7 3 1 7 1 4 3 4 3 2 2 2 3 1 1 2 1 2 2 2 5 4 3 4 3 5 1 3 3 1 1 1 2 4 3 4 6 5 6 5 3 4 5 5 6
4 3 3 5 3 1 2 2 1 3 2 2 2 3 4 3 3 3 5 5 6 5 2 2 3 4 9 2 3 3 4 4 3 3 4 3 8 5 6 4 2 4 4 4 5
2 3 2 2 2 1 2 1 3 4 4 4 4 4 3 4 3 5 4 2 7 7 7 5 2 4 6 3 2 4 5 5 3 3 10 4 6 2 5 5 4 5 4 5 7
2 3 4 4 0 5 4 4 3 2 3 3 3 2 2 3 4 3 3 4 6 6 5 5 4 7 7 7 4 8 10 7 9 5 9 18 22 16 15 12 3 2 5 6 7
1 3 1 3 2 2 3 5 4 4 3 5 2 7 7 4 3 5 4 3 4 5 5 4 6 6 12 12 11 17 20 16 13 18 14 26 15 19 5 4 2 4 6 7 7
1 1 3 2 2 1 1 5 7 3 7 5 5 5 8 7 9 7 5 4 7 2 6 3 5 2 5 12 16 20 21 20 19 19 17 22 26 2 4 2 3 3 6 6 7
1 1 3 2 1 3 4 5 5 5 6 5 9 4 6 15 6 5 5 5 6 8 8 6 4 2 7 2 6 13 16 17 5 6 7 10 2 3 4 5 4 5 5 6 7
Wind_Direction
21 20 17 14 10 11 18 21 39 66 103 134 131 121 95 90 40 49 37 349 342 355 356 1 34 13 41 45 46 89 62 74 115 165 179 53 122 29 70 94 43 56 82 70 13
17 16 14 6 357 8 27 32 44 69 100 134 145 144 71 16 12 42 4 355 354 352 353 359 352 355 25 16 25 67 85 168 268 168 159 103 118 165 107 122 87 80 74 40 25
15 14 11 1 3 50 46 44 55 72 102 127 149 180 332 354 61 339 356 355 359 3 347 335 311 352 48 29 5 46 132 166 236 135 148 148 146 153 128 233 182 177 138 44 31
14 12 14 19 52 62 60 59 73 85 98 108 117 106 32 59 76 339 350 358 2 6 50 32 28 46 71 52 351 90 48 151 196 45 112 174 137 212 176 154 149 134 127 89 45
15 13 18 39 57 60 65 69 79 87 91 93 82 23 18 42 34 354 349 2 9 29 39 35 47 45 72 83 65 69 134 80 139 102 109 137 240 238 197 159 122 124 106 96 72
13 14 18 39 55 62 69 75 84 89 88 69 43 70 60 67 328 336 347 3 22 29 38 36 57 323 86 59 81 80 166 174 206 207 248 213 299 278 188 160 144 138 124 107 83
13 14 20 32 52 61 73 81 90 85 87 57 54 82 66 172 341 357 357 6 12 22 38 29 4 101 81 62 3 105 36 291 222 195 252 113 279 235 178 173 167 156 142 124 95
13 14 18 26 44 67 80 89 96 92 55 33 34 59 94 357 354 356 6 336 2 11 16 9 1 79 55 161 32 32 47 2 315 156 225 101 267 268 177 169 190 160 155 138 126
13 13 16 19 43 81 91 89 80 84 51 23 41 72 10 334 1 355 357 346 337 2 335 351 40 69 24 62 26 11 311 301 324 197 111 183 274 254 186 195 200 175 164 157 153
12 12 16 18 29 94 100 83 69 50 6 23 44 38 17 316 319 334 357 339 340 334 30 51 48 64 22 50 42 301 327 307 271 295 223 246 263 258 213 208 207 177 176 172 172
11 11 15 26 27 150 331 329 18 354 37 79 284 160 332 329 318 345 351 355 15 49 29 18 60 29 296 323 222 247 232 265 265 231 338 252 277 287 248 203 180 188 189 191 184
10 11 10 35 38 8 9 75 92 140 70 8 338 334 322 344 0 332 6 59 43 32 357 29 36 268 293 349 236 306 302 296 295 273 295 299 288 344 31 219 181 188 196 198 182
10 10 10 61 42 48 76 81 106 99 96 329 314 326 307 14 20 310 27 339 50 34 17 130 246 296 19 16 7 318 243 278 257 315 234 326 324 318 10 42 136 207 185 191 200
6 8 9 348 114 37 58 38 102 52 78 313 342 345 344 79 355 311 18 77 24 39 292 195 339 355 342 60 81 311 210 280 294 35 296 29 290 303 240 254 232 225 209 209 204
359 1 5 35 41 54 343 118 134 64 42 325 316 322 315 64 294 346 16 35 73 306 79 276 349 3 348 280 140 245 329 288 245 147 36 333 67 267 329 273 256 229 220 223 211
355 354 3 7 45 32 84 124 108 46 266 339 346 354 16 11 337 321 22 34 28 351 339 283 331 130 260 298 235 307 347 55 48 88 18 252 110 281 224 221 268 26 216 217 214
352 352 4 19 359 354 139 94 38 101 345 332 321 1 314 321 330 39 45 14 36 17 5 333 299 323 15 335 19 15 23 352 1 7 231 256 7 245 250 245 249 271 244 218 200
350 343 314 9 354 106 144 57 104 171 233 270 260 324 347 357 312 344 70 21 27 55 36 20 332 16 358 90 298 338 109 125 292 286 285 322 235 253 215 222 250 274 272 205 213
348 341 306 343 342 149 80 68 191 205 194 291 336 55 314 357 343 22 42 175 211 54 64 15 281 287 49 46 97 331 55 172 205 292 347 258 284 277 215 260 253 255 213 228 225
341 334 294 340 334 112 78 201 204 224 159 144 194 188 311 303 5 26 218 182 196 175 142 180 295 238 247 75 24 165 170 356 33 309 290 287 280 243 218 237 226 256 243 248 240
341 20 353 346 358 50 144 207 178 166 183 190 204 234 238 283 268 270 246 204 191 189 150 158 159 284 8 197 193 12 289 188 139 159 238 298 262 218 200 184 180 281 338 314 267
7 345 341 348 47 40 119 185 135 187 199 212 164 189 205 217 244 249 228 217 180 156 194 186 169 264 246 286 242 210 210 151 139 247 232 190 267 285 197 109 74 68 46 356 326
1 260 324 331 159 229 248 230 217 167 212 190 224 208 198 219 248 213 233 185 169 159 176 182 229 310 333 4 288 217 196 194 223 185 226 243 257 121 108 117 97 85 354 334 327
3 336 321 48 28 142 177 222 226 226 229 193 202 147 169 245 235 276 244 222 201 206 175 149 208 192 226 234 198 257 248 217 226 238 260 236 266 268 267 298 99 333 329 330 330
89 257 195 291 302 210 168 184 189 227 218 181 230 214 182 213 228 225 234 255 195 202 173 173 235 231 249 264 265 266 268 253 232 242 239 272 257 264 273 170 221 326 328 342 340
185 24 355 275 294 243 211 227 210 217 158 233 214 215 197 209 200 214 197 199 221 129 168 204 261 229 263 250 255 264 264 259 249 249 249 257 269 20 112 55 323 342 349 348 338
252 214 120 263 233 125 224 225 241 169 224 196 205 184 208 235 234 238 222 217 228 176 191 185 209 173 275 194 304 277 251 240 200 219 210 225 244 71 31 1 348 345 7 352 349